Theta_e
302 302 299 297 295 295 293 293 292 291 290 288 288 288 287 287 286 286 285 284 283 282 281 281 280 279 280 281 282 281 281 281 282 280 277 277 276 277 277 278 280 281 277
302 301 297 295 295 295 293 292 291 290 289 288 288 287 287 286 285 285 284 282 281 280 279 279 278 278 279 279 280 279 278 278 279 278 277 277 276 276 276 276 277 279 276
300 298 295 295 294 293 293 292 291 290 289 288 287 286 286 285 284 284 282 281 280 279 279 279 278 278 278 278 278 278 277 277 277 277 277 276 276 275 275 276 275 278 276
298 297 295 293 293 293 292 291 291 290 288 287 286 286 285 284 283 282 281 280 279 279 279 279 278 278 278 277 277 277 277 277 277 276 276 276 275 275 275 275 275 275 276
299 294 293 292 291 291 291 290 290 289 288 287 286 285 284 284 282 282 280 279 279 279 279 279 279 279 278 277 277 277 277 277 276 276 275 275 275 274 274 274 274 274 275
296 294 293 292 292 291 289 288 288 288 287 286 285 285 284 283 282 282 281 279 279 279 279 279 280 280 279 278 278 278 277 277 276 275 275 275 275 274 274 274 274 273 274
295 294 292 291 289 288 287 287 287 287 287 285 284 283 283 282 282 281 281 280 279 278 279 279 280 280 280 278 277 277 278 277 276 275 275 275 275 274 274 274 274 273 273
295 293 291 290 289 287 287 287 286 287 286 284 283 283 283 282 283 282 280 280 279 277 277 278 279 279 279 277 277 277 277 276 276 275 275 274 274 274 273 274 274 273 273
295 292 291 290 288 287 286 286 286 285 284 283 283 282 282 283 283 281 280 279 278 277 276 277 277 277 277 276 277 277 277 276 276 275 274 273 273 273 273 273 273 272 271
294 292 290 289 288 288 287 286 285 284 283 283 282 282 282 283 283 281 281 280 278 277 276 276 276 276 277 276 276 276 275 275 274 274 273 273 272 272 272 273 273 271 270
294 291 290 289 288 287 286 286 284 283 282 282 281 282 282 282 282 281 280 280 279 278 277 276 276 277 277 276 275 275 275 274 273 273 272 272 272 272 271 272 273 270 270
292 290 288 288 287 286 287 285 284 283 282 280 280 280 282 282 282 282 280 280 280 280 278 277 276 277 277 276 275 275 274 273 273 272 272 272 271 271 271 271 271 270 270
289 288 288 287 286 287 284 283 283 283 282 281 279 279 280 282 282 282 282 280 280 280 279 278 276 277 277 276 275 274 273 273 272 272 271 271 271 270 270 270 270 270 270
289 288 287 287 286 284 284 283 283 283 283 282 281 279 278 280 281 281 282 282 279 280 279 277 276 277 276 276 275 273 273 272 272 271 271 271 270 270 269 269 269 269 269
289 288 287 286 284 284 283 283 283 283 282 282 281 280 279 278 280 280 281 281 279 280 278 276 276 276 275 275 274 273 273 272 271 271 270 270 270 270 269 268 268 267 267
288 287 286 285 284 284 283 283 283 282 282 282 282 283 282 281 281 280 280 280 279 280 278 275 275 275 275 275 274 273 272 272 271 270 270 270 269 269 268 268 267 267 266
288 287 286 285 285 284 283 283 282 282 282 282 282 283 284 284 282 280 280 279 279 279 277 275 275 275 275 275 275 274 273 271 271 270 269 269 269 269 268 267 267 266 266
288 287 286 285 285 284 283 283 282 282 282 282 282 282 282 283 282 280 279 278 277 275 275 275 275 275 275 275 274 273 272 271 270 270 269 269 269 268 268 267 266 266 265
288 287 286 285 284 283 283 283 282 282 282 282 281 281 281 282 280 279 279 277 276 275 275 275 275 275 276 275 274 273 272 271 270 269 269 268 268 268 268 267 266 266 265
289 288 287 286 284 284 283 283 282 282 282 281 281 281 280 280 280 279 279 278 277 276 276 276 274 275 276 275 274 273 271 270 269 269 269 268 268 268 268 267 266 266 265
289 288 287 286 285 284 284 283 283 282 281 281 281 281 280 280 280 280 280 279 278 278 278 277 274 275 276 275 273 272 271 270 270 269 269 268 268 268 267 267 266 265 265
290 288 287 286 285 284 284 283 282 282 282 281 281 281 281 281 280 280 280 280 279 279 278 275 274 275 275 274 273 272 271 270 269 269 269 268 267 267 267 267 266 265 264
290 288 286 285 285 283 283 283 282 282 281 281 280 280 280 280 280 280 280 280 280 279 277 274 274 275 274 273 272 271 271 270 269 269 268 268 267 267 267 266 266 265 264
290 288 287 285 284 283 282 282 281 281 281 280 279 279 278 278 280 280 280 280 279 277 275 274 274 274 273 272 271 270 270 269 269 268 268 267 267 266 266 266 265 265 264
290 289 287 286 284 284 283 282 281 281 280 279 278 279 278 278 279 279 279 279 278 276 274 274 274 273 272 271 271 270 269 268 268 267 267 266 266 265 265 265 265 265 264
290 289 288 287 285 284 283 282 281 280 280 279 279 278 279 278 278 278 278 278 276 274 274 273 273 272 272 271 270 269 268 267 267 266 266 265 265 265 264 265 265 264 264
Wind_Speed
40 41 32 35 37 38 38 38 38 35 31 29 27 23 23 20 17 15 14 14 13 12 12 11 11 9 10 9 7 7 7 4 2 2 5 10 20 19 16 13 9 6 18
29 33 32 32 37 42 39 36 37 35 32 30 27 26 23 20 18 16 17 15 14 15 15 13 12 11 11 10 8 9 9 7 3 3 6 10 14 19 19 16 13 5 15
29 25 27 35 39 39 40 40 37 35 33 29 29 27 24 21 18 17 16 16 16 15 14 14 13 11 12 12 11 11 10 10 10 6 5 8 7 19 18 18 16 10 10
31 30 30 32 38 39 40 42 41 36 34 30 27 25 23 21 20 19 18 18 18 18 15 14 13 13 13 13 13 13 11 12 13 12 7 7 8 14 18 20 18 17 12
33 30 32 34 33 36 41 44 43 40 35 32 30 26 24 22 23 23 22 22 20 19 15 13 12 12 12 10 11 12 10 12 14 12 11 9 11 15 22 21 15 19 7
36 38 37 37 38 38 39 42 41 39 36 32 30 30 28 26 26 24 23 22 20 18 17 14 12 11 9 6 8 8 8 10 13 13 13 11 16 15 19 20 22 12 7
31 31 36 41 38 39 39 39 40 39 37 34 31 29 29 27 25 25 23 21 19 18 16 14 16 14 12 8 7 6 6 8 11 12 13 12 13 14 16 18 18 19 8
26 26 30 38 36 36 40 42 40 39 36 35 34 33 31 28 25 24 24 22 20 17 15 13 15 15 12 6 7 8 10 10 9 11 11 10 11 12 12 13 13 17 7
29 31 35 37 35 39 36 36 36 36 32 31 32 32 32 28 25 25 26 24 20 16 15 13 11 11 10 9 9 8 8 8 8 7 7 6 8 9 11 11 12 16 6
29 31 34 36 38 38 38 37 35 32 31 31 27 29 30 30 26 25 26 26 21 18 15 13 10 11 11 10 8 8 8 6 4 3 4 5 6 10 11 10 7 11 8
24 26 29 32 35 37 39 38 34 30 29 29 30 30 30 33 28 24 25 26 24 21 18 16 12 12 10 9 7 7 6 5 4 3 4 4 6 10 11 9 6 10 11
24 26 27 29 30 34 38 35 34 33 31 27 25 25 31 33 30 25 22 22 21 20 19 17 15 13 10 10 9 9 7 5 3 2 3 5 7 10 10 8 6 7 9
25 26 29 31 33 38 36 33 30 31 28 26 26 24 26 32 30 26 23 20 22 21 17 16 16 14 12 10 10 8 5 3 2 2 2 2 4 7 8 4 2 2 4
25 27 31 32 32 33 32 34 30 29 27 26 26 24 26 31 33 29 25 23 20 22 18 19 18 17 14 13 12 8 5 3 2 1 1 1 2 4 7 8 8 9 7
21 21 22 23 28 27 27 32 30 30 32 29 28 30 32 29 37 33 27 27 26 25 24 23 22 21 19 17 13 9 6 5 2 1 0 1 1 2 5 7 9 10 11
19 20 20 23 24 25 24 21 20 28 29 26 28 37 35 31 32 31 27 26 27 26 28 28 27 25 22 20 17 14 10 8 5 3 2 3 2 2 3 5 8 10 10
20 21 21 21 23 23 22 24 21 19 25 29 29 29 27 29 29 28 27 25 25 28 28 28 28 27 23 20 19 17 13 10 7 5 4 3 3 2 2 4 7 9 9
20 24 23 23 23 24 24 24 24 26 25 23 19 23 24 24 26 29 29 26 25 23 28 29 28 25 22 22 20 19 14 12 10 8 7 5 5 3 2 2 4 8 8
23 22 23 24 24 25 25 24 25 24 23 23 22 20 21 22 27 30 31 30 28 25 29 27 24 24 24 22 20 18 16 14 11 11 10 7 6 5 3 2 2 4 6
25 25 26 24 24 25 24 24 23 23 24 24 23 24 26 27 30 31 31 27 28 28 29 25 23 24 23 22 19 19 18 15 14 14 12 9 7 7 6 4 1 1 4
24 26 24 24 25 26 26 26 26 26 25 25 25 28 33 32 29 30 29 33 34 31 26 23 22 24 23 21 21 21 19 16 15 14 13 11 9 9 8 6 3 1 2
24 25 29 26 24 25 26 25 24 25 26 27 25 28 31 28 28 33 36 37 35 28 23 21 23 23 23 22 21 21 19 17 16 16 14 12 10 9 9 8 6 3 2
25 25 24 25 26 23 24 26 27 27 26 27 32 32 31 30 35 36 37 36 30 25 22 21 22 22 20 18 17 17 17 17 16 15 15 13 12 11 10 10 7 6 4
25 25 26 24 25 27 26 25 26 27 28 28 31 32 31 34 37 35 35 32 27 25 22 23 23 21 20 19 17 15 13 12 13 14 14 13 12 11 12 11 9 7 5
26 25 25 26 26 27 26 26 26 27 29 30 31 32 33 33 35 35 32 28 27 26 25 23 24 21 18 18 17 16 16 15 14 15 15 13 12 11 12 11 10 9 7
23 24 23 22 23 25 25 25 26 28 29 29 31 33 34 34 34 35 33 30 28 27 27 26 24 22 19 17 16 16 15 15 15 16 15 14 13 12 12 11 11 10 8
Wind_Direction
184 187 190 185 188 190 188 187 182 175 173 172 170 166 172 171 172 169 169 162 163 148 152 147 131 125 117 121 117 94 84 104 120 87 9 31 35 32 29 25 19 9 15
184 181 185 185 187 188 186 188 183 175 174 173 166 170 172 172 174 175 173 168 160 157 148 139 127 126 122 119 117 96 77 72 116 82 22 23 36 29 34 31 24 34 21
189 183 182 187 189 186 183 180 181 178 173 172 170 170 172 174 173 176 177 164 167 157 149 133 126 122 118 116 111 100 87 77 79 74 44 25 31 21 26 32 28 38 29
189 192 188 191 189 184 181 180 179 179 174 171 173 170 173 171 172 175 169 165 160 145 139 130 122 114 112 112 107 97 90 83 75 66 37 23 22 15 29 19 17 20 21
192 186 186 189 186 184 180 180 178 176 175 173 172 171 172 174 177 175 172 168 164 153 147 142 139 123 111 104 100 92 82 79 70 62 53 28 25 22 23 17 8 12 21
184 182 182 187 186 183 177 174 175 173 172 174 177 175 170 178 177 177 175 170 164 158 155 148 142 153 127 125 97 86 74 73 71 62 56 44 26 19 19 21 20 14 357
191 182 177 174 172 173 168 169 170 173 172 176 180 175 171 176 174 174 175 168 159 159 159 151 158 155 163 152 132 128 90 87 66 58 56 46 28 17 12 18 21 11 352
189 183 178 171 167 165 165 166 168 173 176 175 176 173 173 174 169 171 175 164 157 156 158 160 160 160 185 179 140 126 112 88 69 60 50 41 33 13 15 11 17 8 10
187 183 179 174 167 163 164 161 163 167 170 174 176 171 171 168 167 171 173 166 160 153 160 164 159 172 174 165 163 153 142 121 100 77 60 36 29 21 12 14 25 20 6
187 182 179 176 171 166 160 161 163 169 167 167 169 175 174 163 169 172 179 174 162 162 164 153 160 157 160 175 174 164 153 131 103 84 56 42 31 24 18 23 39 41 16
183 177 176 174 169 164 154 158 159 157 159 164 172 177 170 169 169 173 183 181 177 171 166 162 158 156 156 156 150 152 146 127 104 82 57 47 39 30 27 25 79 54 52
168 163 162 161 158 153 153 158 158 156 157 160 165 167 174 173 172 180 189 196 189 181 176 167 156 164 161 155 136 140 136 125 107 88 59 50 42 32 36 53 97 59 44
152 153 153 153 150 158 155 154 153 158 158 163 165 167 172 179 179 185 194 196 202 195 184 171 162 166 169 159 153 153 140 129 113 87 81 62 51 33 22 37 61 63 18
151 153 154 155 159 158 156 158 158 161 168 169 168 171 171 180 186 187 194 196 191 193 183 176 171 178 186 176 176 170 154 142 134 107 75 122 106 36 27 25 18 5 354
153 154 157 154 150 149 161 164 169 177 176 172 178 175 172 180 188 188 186 188 188 188 183 177 177 185 187 191 192 188 180 176 177 177 342 192 163 48 43 32 32 30 34
144 152 153 151 150 155 156 158 176 181 180 184 186 192 190 192 186 188 186 187 190 189 185 183 186 192 194 198 203 198 197 195 200 211 219 200 175 104 58 41 34 30 23
158 156 155 155 156 157 161 160 157 175 183 191 196 197 199 195 192 185 185 185 189 189 194 194 196 197 199 206 206 207 204 203 210 214 211 201 194 165 101 57 39 32 27
165 163 162 165 166 165 165 167 166 167 172 180 189 190 192 195 190 185 182 177 176 193 200 200 200 201 204 207 206 206 205 204 210 214 208 203 200 201 170 86 50 36 27
174 171 167 169 170 169 167 167 168 167 168 168 171 183 190 191 184 182 180 179 181 191 200 205 207 207 208 209 211 209 208 211 216 212 209 212 214 214 201 170 73 37 26
181 177 173 170 167 168 168 168 168 169 167 170 173 176 179 177 181 183 186 189 190 196 204 208 209 208 209 209 210 207 203 207 210 210 213 218 224 224 219 206 187 33 20
181 180 178 174 174 175 176 176 175 173 173 177 179 178 176 180 185 190 193 198 208 208 208 212 211 207 206 207 206 203 208 213 216 216 215 220 226 224 218 217 213 244 341
193 184 182 182 181 179 180 179 178 178 179 178 177 181 182 184 189 195 201 206 209 211 212 216 211 207 203 204 205 206 210 213 214 212 216 219 223 222 221 216 217 233 268
201 194 188 185 186 186 180 181 179 180 180 179 183 181 182 192 197 202 206 208 206 208 211 211 207 202 203 205 208 212 215 216 215 217 218 217 216 219 223 221 226 225 237
208 202 194 192 188 184 185 183 183 182 180 181 184 185 185 195 202 207 210 209 206 205 207 201 204 203 199 198 200 208 209 206 209 217 217 217 217 219 217 220 225 231 242
211 208 198 191 190 188 185 182 182 182 182 184 185 190 191 197 202 209 210 205 202 201 200 202 199 198 198 198 202 203 202 208 214 209 211 211 217 220 219 223 231 235 238
215 209 204 195 189 185 184 183 183 182 185 187 189 191 194 199 207 209 205 201 198 198 196 193 193 195 193 194 198 201 206 210 204 204 210 214 213 214 221 232 232 223 235